Location: Ferchesar
(52.6477°N, 12.4298°E)
Time: 16:45:50
(UTC+01:00)

Vanguard 1 - Pass Details

Date: 13 December 2021
Orbit: 652 x 3830 km, 34.2° (Epoch: 22 January)

Event Time Altitude Azimuth Distance (km) Brightness Sun altitude
Rises 04:41:01 0° 278° (W) 7,921 - -30.7°
Reaches altitude 10° 04:48:59 10° 264° (W) 6,932 - -29.5°
Exits shadow 05:00:48 19° 233° (SW) 5,869 13.5 -27.7°
Maximum altitude 05:01:59 19° 229° (SW) 5,807 13.5 -27.6°
Drops below altitude 10° 05:13:12 10° 193° (SSW) 5,828 13.9 -25.9°
Sets 05:19:04 0° 177° (S) 6,309 14.3 -25.0°
